"Pseudo-MPEC" for P120TmT

Created 2024 Nov 7 12:31:07 UT using Find_Orb

Click here for an explanation of pseudo-MPECs

 
 Astrometry: 
     P120TmT* C2024 10 18.37445321 43 10.788+17 41 08.82   ~AIBV 19.66iXNEOCPF51
     P120TmT  C2024 10 18.39275321 43 08.484+17 42 20.02   ~AIBV 19.38iXNEOCPF51
     P120TmT  C2024 10 18.40193221 43 07.300+17 42 55.43   ~AIBV 19.18iXNEOCPF51

Station data:
(F51) Pan-STARRS 1, Haleakala  (N20.707234 W156.255910)  US/Hawaii.
   Observers J. Bulger, T. Lowe, A. Schultz, M. Willman. Measurers K.
   Chambers, S. Chastel, T. de Boer, L. Denneau, J. Fairlamb, H. Flewelling,
   M. Huber, C.-C. Lin, E. Magnier, Y. Ramanjooloo, R. Wainscoat, R. Weryk.
   1.8-m Ritchey-Chrétien + CCD.

Orbital elements:  P120TmT
   Perihelion 2024 Jul 26.93698 +/- 51.3 TT = 22:29:15 (JD 2460518.43698)
Epoch 2024 Oct 18.0 TT = JDT 2460601.5   Earth MOID: 0.0586   Ve: 0.0736
M  72.38483743 +/- 51               (J2000 ecliptic)             AutoNEOCP
n   0.87144480 +/- 0.565            Peri.  247.81792 +/- 80
a   1.08553240 +/- 0.469            Node    12.81169 +/- 33
e   0.4086334 +/- 0.259             Incl.   48.15093 +/- 23
P   1.131/413.099d         H 20.99  G  0.15   U 12.4  SR
q 0.64194759 +/- 0.335    Q 1.52911721 +/- 29.2
From 3 observations 2024 Oct. 18 (39.6 min); mean residual 0".13
Residuals in arcseconds: 
241018 F51  .08-  .03-    241018 F51  .25+  .08+    241018 F51  .16-  .06-    

Ephemerides (geocentric):
Date (UTC) HH   RA             Dec           delta  r     elong  mag " sig PA
---- --------  ------------   ------------  ------ ------ -----  --- --------
2024 11 07 13  21 36 20.844   +26 55 19.04  .52620 1.2517 107.2 21.9  34d  92
2024 11 07 14  21 36 22.019   +26 55 49.67  .52684 1.2519 107.1 21.9  34d  92
2024 11 07 15  21 36 23.198   +26 56 20.25  .52747 1.2521 107.1 21.9  34d  92
2024 11 07 16  21 36 24.382   +26 56 50.78  .52811 1.2523 107.1 21.9  34d  92
2024 11 07 17  21 36 25.571   +26 57 21.24  .52874 1.2526 107.1 21.9  34d  92
2024 11 07 18  21 36 26.764   +26 57 51.66  .52938 1.2528 107.0 21.9  34d  92
2024 11 07 19  21 36 27.962   +26 58 22.01  .53001 1.2530 107.0 21.9  34d  92
2024 11 07 20  21 36 29.165   +26 58 52.32  .53065 1.2532 107.0 21.9  34d  92
2024 11 07 21  21 36 30.372   +26 59 22.56  .53128 1.2535 107.0 21.9  34d  92
2024 11 07 22  21 36 31.583   +26 59 52.76  .53192 1.2537 106.9 21.9  34d  92
2024 11 07 23  21 36 32.800   +27 00 22.89  .53255 1.2539 106.9 21.9  34d  92
2024 11 08 00  21 36 34.020   +27 00 52.98  .53319 1.2541 106.9 21.9  34d  92
2024 11 08 01  21 36 35.246   +27 01 23.01  .53382 1.2544 106.9 22.0  34d  92
2024 11 08 02  21 36 36.475   +27 01 52.99  .53446 1.2546 106.8 22.0  34d  92
2024 11 08 03  21 36 37.710   +27 02 22.91  .53509 1.2548 106.8 22.0  35d  92
2024 11 08 04  21 36 38.948   +27 02 52.78  .53573 1.2550 106.8 22.0  35d  91
2024 11 08 05  21 36 40.192   +27 03 22.60  .53636 1.2553 106.8 22.0  35d  91
2024 11 08 06  21 36 41.439   +27 03 52.37  .53699 1.2555 106.7 22.0  35d  91
2024 11 08 07  21 36 42.692   +27 04 22.08  .53763 1.2557 106.7 22.0  35d  91
2024 11 08 08  21 36 43.948   +27 04 51.74  .53826 1.2559 106.7 22.0  35d  91
2024 11 08 09  21 36 45.209   +27 05 21.35  .53890 1.2562 106.7 22.0  35d  91
2024 11 08 10  21 36 46.475   +27 05 50.91  .53953 1.2564 106.6 22.0  35d  91
2024 11 08 11  21 36 47.745   +27 06 20.41  .54017 1.2566 106.6 22.0  35d  91
2024 11 08 12  21 36 49.019   +27 06 49.87  .54080 1.2568 106.6 22.0  35d  91
2024 11 08 13  21 36 50.298   +27 07 19.27  .54143 1.2570 106.6 22.0  35d  91
2024 11 08 14  21 36 51.581   +27 07 48.63  .54207 1.2573 106.5 22.0  35d  91
2024 11 08 15  21 36 52.868   +27 08 17.93  .54270 1.2575 106.5 22.0  35d  91
2024 11 08 16  21 36 54.160   +27 08 47.18  .54334 1.2577 106.5 22.0  35d  91
2024 11 08 17  21 36 55.457   +27 09 16.38  .54397 1.2579 106.5 22.0  35d  91
2024 11 08 18  21 36 56.757   +27 09 45.54  .54460 1.2582 106.4 22.0  35d  91
2024 11 08 19  21 36 58.062   +27 10 14.64  .54524 1.2584 106.4 22.0  35d  91
2024 11 08 20  21 36 59.371   +27 10 43.70  .54587 1.2586 106.4 22.0  35d  91
2024 11 08 21  21 37 00.685   +27 11 12.70  .54651 1.2588 106.3 22.0  35d  91
2024 11 08 22  21 37 02.003   +27 11 41.66  .54714 1.2591 106.3 22.0  35d  91
2024 11 08 23  21 37 03.325   +27 12 10.56  .54777 1.2593 106.3 22.0  35d  90
2024 11 09 00  21 37 04.651   +27 12 39.42  .54841 1.2595 106.3 22.0  35d  90
2024 11 09 01  21 37 05.982   +27 13 08.23  .54904 1.2597 106.2 22.0  36d  90
2024 11 09 02  21 37 07.317   +27 13 37.00  .54967 1.2600 106.2 22.0  36d  90
2024 11 09 03  21 37 08.657   +27 14 05.71  .55031 1.2602 106.2 22.0  36d  90
2024 11 09 04  21 37 10.000   +27 14 34.38  .55094 1.2604 106.2 22.0  36d  90
2024 11 09 05  21 37 11.348   +27 15 03.00  .55157 1.2606 106.1 22.0  36d  90
2024 11 09 06  21 37 12.700   +27 15 31.57  .55221 1.2608 106.1 22.0  36d  90
2024 11 09 07  21 37 14.056   +27 16 00.10  .55284 1.2611 106.1 22.0  36d  90
2024 11 09 08  21 37 15.416   +27 16 28.58  .55347 1.2613 106.1 22.0  36d  90
2024 11 09 09  21 37 16.781   +27 16 57.01  .55411 1.2615 106.0 22.0  36d  90
2024 11 09 10  21 37 18.150   +27 17 25.40  .55474 1.2617 106.0 22.0  36d  90
2024 11 09 11  21 37 19.523   +27 17 53.74  .55537 1.2620 106.0 22.0  36d  90
2024 11 09 12  21 37 20.900   +27 18 22.03  .55601 1.2622 106.0 22.1  36d  90